Location: Asheville, NC
(35.6000°N, 82.5500°W)
Time: 17:29:07

Vanguard 1 Rocket - Pass Details

Date: 08 March 2018
Orbit: 655 x 4222 km, 34.3° (Epoch: 19 March)

Event Time Altitude Azimuth Distance (km) Brightness Sun altitude
Rises 00:54:20 0° 285° (WNW) 6,528 11.8 -59.1°
Reaches altitude 10° 00:58:02 10° 282° (WNW) 5,886 11.5 -59.0°
Enters shadow 01:02:12 22° 278° (W) 5,258 11.1 -58.9°
Maximum altitude 01:18:18 63° 208° (SSW) 4,347 - -58.1°
Exits shadow 01:38:57 20° 137° (SE) 6,400 11.4 -56.5°
Drops below altitude 10° 01:43:42 10° 134° (SE) 7,084 11.8 -56.1°
Sets 01:48:45 0° 131° (SE) 7,843 12.1 -55.5°
